Pittsfield, MA

8:18 PM EDT on September 30, 2016 (GMT -0400)
Pittsfield Municipal

Weather History for KPSF - March, 2012

Change the Weather History Date:

Sunday, March 11, 2012

  Actual Average Record
Temperature  
Mean Temperature 38 °F 30 °F  
Max Temperature 55 °F 40 °F 60 °F (1967)
Min Temperature 20 °F 20 °F -3 °F (1960)
Degree Days  
Heating Degree Days 27 35  
Month to date heating degree days 361 401  
Since 1 July heating degree days 4849 5781  
Cooling Degree Days 0 0  
Month to date cooling degree days 0 0  
Year to date cooling degree days 0 0  
Moisture  
Dew Point 19 °F    
Average Humidity 59    
Maximum Humidity 91    
Minimum Humidity 26    
Precipitation  
Precipitation 0.00 in 0.08 in 1.34 in (1936)
Month to date precipitation 0.57 0.92  
Year to date precipitation 4.78 6.52  
Sea Level Pressure  
Sea Level Pressure 30.34 in    
Wind  
Wind Speed 5 mph (SW)    
Max Wind Speed 15 mph    
Max Gust Speed 20 mph    
Visibility 10 miles    
Events      
T = Trace of Precipitation, MM = Missing Value Source: NWS Daily Summary

Daily Weather History Graph

Daily Weather History Graph

Search for Another Location

Airport or City:

Trip Planner

Search our weather history database for the weather conditions in past years. The results will help you decide how hot, cold, wet, or windy it might be!

Date:

Astronomy

Mar. 11, 2012 Rise Set
Actual Time 7:11 AM EDT 6:55 PM EDT
Civil Twilight 6:43 AM EDT 7:23 PM EDT
Nautical Twilight 6:10 AM EDT 7:56 PM EDT
Astronomical Twilight 5:37 AM EDT 8:29 PM EDT
Moon 11:23 PM EDT (3/11) 8:38 AM EDT (3/11)
Length of Visible Light 12h 40m
Length of Day
11h 44m
Waning Gibbous, 85% of the Moon is Illuminated
Mar 11
Waning Gibbous
Mar 14
Last Quarter
Mar 22
New
Mar 30
First Quarter
Apr 6
Full

Hourly Weather History & Observations

Time (EDT) Temp. Windchill Dew Point Humidity Pressure Visibility Wind Dir Wind Speed Gust Speed Precip Events Conditions
12:54 AM 24.1 °F - 17.1 °F 75% 30.45 in 10.0 mi Calm Calm - N/A   Clear
1:54 AM 21.9 °F - 17.1 °F 82% 30.45 in 10.0 mi Calm Calm - N/A   Clear
3:54 AM 21.9 °F - 18.0 °F 85% 30.43 in 10.0 mi Calm Calm - N/A   Clear
4:54 AM 21.0 °F - 18.0 °F 88% 30.42 in 10.0 mi Calm Calm - N/A   Clear
5:54 AM 21.0 °F 16.2 °F 18.0 °F 88% 30.42 in 10.0 mi NNE 3.5 mph - N/A   Clear
6:54 AM 19.9 °F - 17.1 °F 89% 30.41 in 10.0 mi Calm Calm - N/A   Clear
7:54 AM 30.0 °F 22.4 °F 12.9 °F 49% 30.40 in 10.0 mi SSW 8.1 mph - N/A   Clear
8:54 AM 34.0 °F 26.6 °F 12.0 °F 40% 30.40 in 10.0 mi SW 9.2 mph - N/A   Clear
9:54 AM 37.0 °F 31.6 °F 12.9 °F 37% 30.39 in 10.0 mi SW 6.9 mph - N/A   Clear
10:54 AM 41.0 °F 34.3 °F 15.1 °F 35% 30.38 in 10.0 mi WSW 11.5 mph - N/A   Clear
11:54 AM 44.1 °F 39.0 °F 15.1 °F 31% 30.36 in 10.0 mi SW 9.2 mph 17.3 mph N/A   Clear
12:54 PM 46.9 °F - 17.1 °F 30% 30.34 in 10.0 mi SSW 9.2 mph - N/A   Clear
1:54 PM 50.0 °F - 19.0 °F 29% 30.31 in 10.0 mi WSW 9.2 mph 18.4 mph N/A   Clear
2:54 PM 52.0 °F - 19.9 °F 28% 30.29 in 10.0 mi SSW 10.4 mph 17.3 mph N/A   Clear
3:54 PM 53.1 °F - 21.0 °F 29% 30.27 in 10.0 mi South 9.2 mph - N/A   Clear
4:54 PM 54.0 °F - 21.0 °F 28% 30.26 in 10.0 mi SSW 8.1 mph - N/A   Clear
5:54 PM 55.0 °F - 21.9 °F 28% 30.26 in 10.0 mi SW 5.8 mph - N/A   Clear
6:54 PM 52.0 °F - 21.9 °F 31% 30.27 in 10.0 mi South 3.5 mph - N/A   Clear
7:54 PM 45.0 °F 42.6 °F 24.1 °F 44% 30.27 in 10.0 mi WSW 4.6 mph - N/A   Clear
9:54 PM 37.9 °F 34.4 °F 25.0 °F 60% 30.27 in 10.0 mi West 4.6 mph - N/A   Clear
10:54 PM 36.0 °F - 26.1 °F 67% 30.27 in 10.0 mi Calm Calm - N/A   Clear
11:54 PM 36.0 °F - 26.1 °F 67% 30.27 in 10.0 mi Calm Calm - N/A   Clear
12:54 AM 34.0 °F - 26.1 °F 73% 30.26 in 10.0 mi Calm Calm - N/A   Clear